Location: Writing-on-Stone Provincial Park
(49.0825°N, 111.6163°W)
Time: 19:55:36
(UTC-07:00)

Amateur Radio Satellites - All Passes

Search period start: 23 January 2017 19:25
Search period end: 24 January 2017 19:25
Location: Writing-on-Stone Provincial Park, 49.0825°N, 111.6163°W

Satellite Date Start Highest point End Downlink Frequencies (MHz)
Time Altitude Azimuth
AIST 2 23 Jan 19:31:40 19:35:48 75° 126° (SE) 19:40:01 435.215
NOAA 18 23 Jan 19:32:32 19:36:52 24° 268° (W) 19:41:14 137.9125
Cosmos 2499 23 Jan 19:33:25 19:41:35 69° 95° (E) 19:49:09 435.465 / 435.565
Oscar 11 23 Jan 19:37:47 19:41:27 28° 65° (ENE) 19:45:10 145.826/435.025
CINEMA 3 23 Jan 19:45:09 19:48:46 25° 266° (W) 19:52:18 145.822/145.860
DELFI C3 23 Jan 19:49:20 19:51:19 13° 59° (ENE) 19:53:19 145.870
STRAND 1 23 Jan 19:58:45 20:03:56 74° 103° (ESE) 20:09:05 437.568
CUTE 1.7 + AOD 2 23 Jan 20:00:21 20:04:08 30° 265° (W) 20:07:57 437.475
CUBEBUG 2 23 Jan 20:13:47 20:17:48 47° 261° (W) 20:21:50 437.445
FUNcube-1 23 Jan 20:18:36 20:22:43 72° 74° (ENE) 20:26:56 145.935
HUMSAT D 23 Jan 20:22:49 20:25:34 17° 61° (ENE) 20:28:22 437.325/437.525
COMPASS 1 23 Jan 20:31:30 20:35:14 30° 265° (W) 20:38:59 437.405
AO-85 23 Jan 20:32:00 20:35:27 27° 37° (NE) 20:38:49 145.980
CANX-2 23 Jan 20:32:19 20:34:35 14° 272° (W) 20:36:53 2200.000
SEEDS 23 Jan 20:34:09 20:37:22 21° 268° (W) 20:40:37 437.485
UWE-3 23 Jan 20:34:11 20:38:09 45° 262° (W) 20:42:11 435.000/436.395/437.385
AAUSAT CUBESAT 2 23 Jan 20:38:46 20:42:33 32° 264° (W) 20:46:21 437.432
ZACube-1 23 Jan 20:44:04 20:48:09 58° 260° (W) 20:52:19 437.345
HO-68 23 Jan 20:57:03 21:02:02 20° 272° (W) 21:07:05 435.675
AIST 2 23 Jan 21:11:26 21:14:44 22° 327° (NNW) 21:18:06 435.215
Oscar 11 23 Jan 21:13:31 21:17:29 35° 264° (W) 21:21:31 145.826/435.025
GONETS M04 23 Jan 21:19:02 21:27:17 45° 291° (WNW) 21:35:38
DELFI C3 23 Jan 21:21:34 21:25:35 75° 257° (WSW) 21:29:38 145.870
Cosmos 2499 23 Jan 21:28:22 21:35:18 30° 295° (WNW) 21:41:53 435.465 / 435.565
STRAND 1 23 Jan 21:38:57 21:42:35 20° 303° (WNW) 21:46:12 437.568
BY70-1 23 Jan 21:43:00 21:45:35 23° 66° (ENE) 21:48:17 436.1900
UNISAT 6 23 Jan 21:51:00 21:54:38 24° 93° (E) 21:58:18 437.425
ISS 23 Jan 21:51:39 21:54:41 37° 148° (SSE) 21:57:45 145.825
PRISM 23 Jan 21:52:40 21:56:46 64° 102° (ESE) 22:00:49 437.425
HUMSAT D 23 Jan 21:56:43 22:00:46 58° 259° (W) 22:04:56 437.325/437.525
FUNcube-1 23 Jan 21:57:39 21:59:30 13° 273° (W) 22:01:24 145.935
BEESAT 2 23 Jan 22:01:11 22:02:29 11° 18° (NNE) 22:03:47 435.950
TIGRISAT 23 Jan 22:02:57 22:06:50 28° 95° (E) 22:10:46 435.000
JAS-2 23 Jan 22:10:50 22:16:33 24° 89° (E) 22:22:31 435.910
VELOX 1 23 Jan 22:12:05 22:14:43 16° 58° (ENE) 22:17:20 145.980
AO-85 23 Jan 22:12:14 22:16:00 44° 238° (WSW) 22:19:43 145.980
SPROUT 23 Jan 22:13:14 22:14:31 11° 56° (NE) 22:15:50 437.525
ESTCUBE 1 23 Jan 22:15:44 22:19:54 37° 67° (ENE) 22:24:06 437.505/2401.250
ANTELSAT 23 Jan 22:18:58 22:23:14 42° 98° (E) 22:27:34 437.575/2403.000
DX 1 23 Jan 22:32:05 22:34:00 13° 56° (NE) 22:35:56 434.975-435.025
RS-15 23 Jan 22:36:11 22:46:53 41° 108° (ESE) 22:57:54 29.354- 29.394
YUBILEINY 23 Jan 22:43:32 22:48:17 15° 46° (NE) 22:52:59 435.215
BEESAT 3 23 Jan 22:44:33 22:47:54 25° 36° (NE) 22:51:14 437.485
CUBEBUG 1 23 Jan 22:46:30 22:50:41 44° 69° (ENE) 22:54:51 437.445
AIST 2 23 Jan 22:54:27 22:54:45 10° 351° (N) 22:55:05 435.215
POPSAT HIP 1 23 Jan 22:59:36 23:01:19 12° 88° (E) 23:03:02 437.405
DUCHIFAT 1 23 Jan 23:05:27 23:07:07 12° 88° (E) 23:08:48 145.980
NANOSAT C BR1 23 Jan 23:12:22 23:14:56 16° 90° (E) 23:17:30 145.865
BY70-1 23 Jan 23:13:03 23:15:43 25° 265° (W) 23:18:32 436.1900
AISAT 23 Jan 23:13:08 23:17:28 55° 71° (ENE) 23:21:48 437.250
AIST 1 23 Jan 23:16:20 23:17:46 11° 61° (ENE) 23:19:13
GONETS M04 23 Jan 23:24:05 23:27:06 12° 319° (NW) 23:30:08
UNISAT 6 23 Jan 23:27:18 23:31:30 43° 291° (WNW) 23:35:49 437.425
TISAT 1 23 Jan 23:27:45 23:28:34 10° 55° (NE) 23:29:25 437.305
ISS 23 Jan 23:27:50 23:31:05 65° 347° (NNW) 23:34:20 145.825
Cosmos 2504 23 Jan 23:28:11 23:30:31 12° 46° (NE) 23:32:50 435.465 / 435.565
PRISM 23 Jan 23:29:05 23:31:36 16° 301° (WNW) 23:34:06 437.425
50 SAT 23 Jan 23:36:45 23:40:18 66° 74° (ENE) 23:43:53 437.505
BEESAT 2 23 Jan 23:37:46 23:41:28 32° 40° (NE) 23:45:09 435.950
TIGRISAT 23 Jan 23:39:30 23:43:35 36° 292° (WNW) 23:47:42 435.000
SPROUT 23 Jan 23:45:29 23:49:44 80° 75° (ENE) 23:54:00 437.525
VELOX 1 23 Jan 23:46:10 23:50:36 77° 255° (WSW) 23:55:05 145.980
Cosmos 2491 23 Jan 23:47:34 23:48:07 10° 65° (ENE) 23:48:40 435.465 / 435.565
ESTCUBE 1 23 Jan 23:52:51 23:56:47 28° 265° (W) 00:00:45 437.505/2401.250
JAS-2 23 Jan 23:54:59 00:02:14 85° 286° (WNW) 00:10:03 435.910
ANTELSAT 23 Jan 23:56:06 23:59:45 25° 296° (WNW) 00:03:28 437.575/2403.000
UKube-1 23 Jan 23:56:28 00:00:40 53° 70° (ENE) 00:04:54 .
PCSat 23 Jan 23:59:26 00:04:25 39° 114° (ESE) 00:09:25 145.827
DX 1 24 Jan 00:05:08 00:09:31 86° 69° (ENE) 00:13:55 434.975-435.025
QB50P1 24 Jan 00:06:04 00:10:14 57° 101° (E) 00:14:24 145.935-145.965
POLYITAN 1 24 Jan 00:11:29 00:15:43 65° 102° (ESE) 00:19:56 437.675
QB50P2 24 Jan 00:12:53 00:17:08 72° 102° (ESE) 00:21:22 145.880/145.840
BEESAT 3 24 Jan 00:21:51 00:25:48 57° 236° (SW) 00:29:43 437.485
CUBEBUG 1 24 Jan 00:23:40 00:27:09 23° 267° (W) 00:30:38 437.445
BEESAT 24 Jan 00:24:05 00:25:34 11° 52° (NE) 00:27:01 436.000
SWISSCUBE 24 Jan 00:25:26 00:27:32 13° 53° (NE) 00:29:37 437.505
POPSAT HIP 1 24 Jan 00:33:24 00:37:38 78° 286° (WNW) 00:41:52 437.405
AIST 2 24 Jan 00:33:39 00:35:08 12° 15° (NNE) 00:36:39 435.215
Oscar 19 24 Jan 00:35:57 00:38:25 13° 86° (E) 00:40:52 437.125/150
YUBILEINY 24 Jan 00:38:52 00:47:34 56° 73° (ENE) 00:56:07 435.215
DUCHIFAT 1 24 Jan 00:39:08 00:43:21 78° 286° (WNW) 00:47:33 145.980
RS-15 24 Jan 00:46:30 00:58:34 76° 314° (NW) 01:11:03 29.354- 29.394
NANOSAT C BR1 24 Jan 00:46:53 00:51:02 60° 288° (WNW) 00:55:12 145.865
AISAT 24 Jan 00:51:08 00:54:16 19° 269° (W) 00:57:23 437.250
AIST 1 24 Jan 00:51:46 00:56:04 89° 261° (W) 01:00:19
BUGSAT 1 24 Jan 00:57:26 01:01:28 62° 101° (ESE) 01:05:29 437.445
TISAT 1 24 Jan 00:59:19 01:03:29 76° 74° (ENE) 01:07:39 437.305
ISS 24 Jan 01:04:36 01:07:49 55° 7° (N) 01:11:01 145.825
50 SAT 24 Jan 01:12:59 01:13:56 11° 271° (W) 01:14:52 437.505
BEESAT 2 24 Jan 01:15:32 01:19:19 38° 240° (WSW) 01:23:03 435.950
Cosmos 2504 24 Jan 01:18:58 01:26:10 51° 72° (ENE) 01:33:05 435.465 / 435.565
Gurwin Techsat 1B 24 Jan 01:21:00 01:24:46 19° 90° (E) 01:28:32 435.225
MOZHAYETS 4 24 Jan 01:21:15 01:22:48 12° 54° (NE) 01:24:22
SPROUT 24 Jan 01:24:33 01:26:13 12° 273° (W) 01:27:53 437.525
ITUPSAT 1 24 Jan 01:26:21 01:30:39 35° 65° (ENE) 01:34:59 437.325
UKube-1 24 Jan 01:34:01 01:37:01 18° 268° (W) 01:40:03 .
Cosmos 2491 24 Jan 01:34:23 01:42:38 50° 89° (E) 01:50:57 435.465 / 435.565
JAS-2 24 Jan 01:41:05 01:46:28 24° 306° (NW) 01:52:09 435.910
PCSat 24 Jan 01:42:37 01:47:47 44° 315° (NW) 01:53:00 145.827
QB50P1 24 Jan 01:42:44 01:45:38 18° 299° (WNW) 01:48:31 145.935-145.965
DX 1 24 Jan 01:44:49 01:46:19 12° 273° (W) 01:47:51 434.975-435.025
POLYITAN 1 24 Jan 01:48:23 01:51:04 16° 300° (WNW) 01:53:43 437.675
QB50P2 24 Jan 01:49:58 01:52:25 15° 301° (WNW) 01:54:53 145.880/145.840
BEESAT 24 Jan 01:57:44 02:02:27 66° 71° (ENE) 02:07:12 436.000
SWISSCUBE 24 Jan 01:59:46 02:04:31 76° 72° (ENE) 02:09:19 437.505
AIST 2 24 Jan 02:11:08 02:14:55 30° 38° (NE) 02:18:43 435.215
POPSAT HIP 1 24 Jan 02:11:32 02:12:41 11° 304° (NW) 02:13:51 437.405
Oscar 19 24 Jan 02:13:18 02:18:31 87° 102° (ESE) 02:23:40 437.125/150
DUCHIFAT 1 24 Jan 02:17:13 02:18:18 11° 304° (NW) 02:19:24 145.980
M-CUBED/EXP-1 PRIME 24 Jan 02:20:26 02:23:40 23° 59° (ENE) 02:26:43 437.505
BUGSAT 1 24 Jan 02:33:57 02:36:24 16° 300° (WNW) 02:38:51 437.445
DANDE 24 Jan 02:34:52 02:36:30 12° 73° (ENE) 02:38:16 436.750
YUBILEINY 24 Jan 02:36:08 02:44:06 40° 275° (W) 02:52:00 435.215
TISAT 1 24 Jan 02:37:56 02:39:38 12° 272° (W) 02:41:22 437.305
ISS 24 Jan 02:41:08 02:44:21 58° 207° (SSW) 02:47:32 145.825
CUSAT 1 24 Jan 02:41:23 02:46:58 50° 91° (E) 02:53:55 437.405
AUBIESAT-1 24 Jan 02:52:56 02:56:41 36° 63° (ENE) 03:00:11 437.475
MOZHAYETS 4 24 Jan 02:54:34 02:59:08 72° 73° (ENE) 03:03:46
Gurwin Techsat 1B 24 Jan 02:59:57 03:05:16 70° 288° (WNW) 03:10:32 435.225
RS-15 24 Jan 03:01:58 03:13:22 42° 344° (NNW) 03:24:56 29.354- 29.394
ITUPSAT 1 24 Jan 03:04:10 03:08:28 33° 264° (W) 03:12:50 437.325
KKS-1 24 Jan 03:05:07 03:09:07 34° 66° (ENE) 03:13:08 437.445
ITAMSAT 1 24 Jan 03:05:16 03:09:56 32° 96° (E) 03:14:36 435.822/435.867
Cosmos 2504 24 Jan 03:12:47 03:19:18 35° 275° (W) 03:25:38 435.465 / 435.565
PCSat 24 Jan 03:29:22 03:32:38 16° 338° (NNW) 03:35:53 145.827
Cosmos 2491 24 Jan 03:31:26 03:39:39 44° 291° (WNW) 03:47:57 435.465 / 435.565
AO-7 24 Jan 03:37:14 03:45:09 43° 99° (E) 03:52:58 29.400- 29.500
BEESAT 24 Jan 03:37:32 03:40:41 17° 270° (W) 03:43:53 436.000
SWISSCUBE 24 Jan 03:40:07 03:42:53 15° 271° (W) 03:45:40 437.505
STARS 24 Jan 03:46:37 03:50:43 41° 68° (ENE) 03:54:50 437.465
AIST 2 24 Jan 03:49:29 03:53:34 46° 238° (WSW) 03:57:38 435.215
CUBESAT XI-V 24 Jan 03:51:27 03:55:57 47° 69° (ENE) 04:00:29 437.345
Oscar 19 24 Jan 03:53:54 03:57:10 17° 305° (NW) 04:00:26 437.125/150
M-CUBED/EXP-1 PRIME 24 Jan 03:53:56 03:57:58 43° 254° (WSW) 04:01:43 437.505
DANDE 24 Jan 04:13:08 04:17:36 81° 101° (E) 04:23:44 436.750
ISS 24 Jan 04:18:56 04:20:16 12° 224° (SW) 04:21:36 145.825
CUSAT 1 24 Jan 04:23:36 04:29:10 37° 297° (WNW) 04:35:56 437.405
AUBIESAT-1 24 Jan 04:27:47 04:31:10 24° 259° (WSW) 04:34:22 437.475
MOZHAYETS 4 24 Jan 04:34:12 04:36:50 15° 272° (W) 04:39:29
Gurwin Techsat 1B 24 Jan 04:41:45 04:44:17 14° 308° (NW) 04:46:50 435.225
KKS-1 24 Jan 04:41:47 04:45:42 30° 264° (W) 04:49:38 437.445
ITAMSAT 1 24 Jan 04:44:37 04:49:30 41° 294° (WNW) 04:54:22 435.822/435.867
BRITE-PL 24 Jan 04:59:22 05:03:51 37° 95° (E) 05:08:00 437.365/2234.400
PCSat 24 Jan 05:16:33 05:18:27 12° 5° (N) 05:20:21 145.827
RS-15 24 Jan 05:18:04 05:29:42 43° 18° (NNE) 05:41:10 29.354- 29.394
Cosmos 2499 24 Jan 05:20:06 05:26:14 29° 64° (ENE) 05:32:15 435.465 / 435.565
STARS 24 Jan 05:23:40 05:27:13 24° 266° (W) 05:30:47 437.465
NOAA 15 24 Jan 05:25:16 05:27:52 14° 86° (E) 05:30:27 137.62
GONETS M04 24 Jan 05:26:47 05:34:32 32° 62° (ENE) 05:42:13
CUBESAT XI-V 24 Jan 05:29:45 05:33:33 24° 268° (W) 05:37:23 437.345
AO-7 24 Jan 05:30:03 05:38:07 54° 300° (WNW) 05:46:08 29.400- 29.500
Cubesat XI-IV 24 Jan 05:31:06 05:34:04 15° 87° (E) 05:37:02 437.490
Cosmos 2491 24 Jan 05:36:37 05:39:29 12° 319° (NW) 05:42:22 435.465 / 435.565
HORYU 2 24 Jan 05:37:21 05:41:29 36° 97° (E) 05:45:37 437.375
STRAND 1 24 Jan 05:40:53 05:45:02 26° 61° (ENE) 05:49:12 437.568
O/OREOS (USA 219) 24 Jan 05:45:53 05:50:06 43° 109° (ESE) 05:54:21 437.305
LilacSat-2 24 Jan 05:46:48 05:49:32 18° 91° (E) 05:52:16 437.200
DANDE 24 Jan 05:58:03 06:01:32 18° 308° (NW) 06:05:41 436.750
NOAA 18 24 Jan 06:09:16 06:12:52 18° 89° (E) 06:16:26 137.9125
GOMX 1 24 Jan 06:19:41 06:24:08 88° 109° (ESE) 06:28:20 467.674
CUTE-I 24 Jan 06:25:00 06:30:04 41° 98° (E) 06:35:07 437.470
HO-68 24 Jan 06:31:31 06:35:01 14° 83° (E) 06:38:30 435.675
DOVE 4 24 Jan 06:37:00 06:41:07 52° 100° (E) 06:45:09 437.250
BRITE-PL 24 Jan 06:38:01 06:42:15 30° 296° (WNW) 06:46:11 437.365/2234.400
SO-50 24 Jan 06:46:59 06:50:54 26° 116° (ESE) 06:54:46 436.795
PCSat 24 Jan 06:59:51 07:04:01 22° 31° (NNE) 07:08:10 145.827
NOAA 15 24 Jan 07:03:05 07:08:27 85° 105° (ESE) 07:13:46 137.62
Cubesat XI-IV 24 Jan 07:09:30 07:14:53 89° 285° (WNW) 07:20:15 437.490
Cosmos 2499 24 Jan 07:12:54 07:19:55 62° 267° (W) 07:26:51 435.465 / 435.565
PRISM 24 Jan 07:13:48 07:14:59 11° 55° (NE) 07:16:09 437.425
HORYU 2 24 Jan 07:14:06 07:17:56 29° 296° (WNW) 07:21:46 437.375
STRAND 1 24 Jan 07:18:58 07:23:55 53° 260° (W) 07:28:57 437.568
LilacSat-2 24 Jan 07:20:20 07:24:03 44° 289° (WNW) 07:27:44 437.200
GONETS M04 24 Jan 07:23:22 07:32:10 72° 265° (W) 07:40:57
AO-7 24 Jan 07:24:05 07:29:08 18° 323° (NW) 07:34:10 29.400- 29.500
O/OREOS (USA 219) 24 Jan 07:25:51 07:29:40 27° 309° (NW) 07:33:31 437.305
RS-15 24 Jan 07:31:49 07:44:19 80° 48° (NE) 07:56:24 29.354- 29.394
CINEMA 3 24 Jan 07:34:14 07:38:20 50° 100° (E) 07:42:33 145.822/145.860
CUTE 1.7 + AOD 2 24 Jan 07:40:34 07:44:33 34° 96° (E) 07:48:27 437.475
NOAA 18 24 Jan 07:48:40 07:54:10 79° 287° (WNW) 07:59:37 137.9125
GOMX 1 24 Jan 07:59:33 08:01:31 13° 304° (NW) 08:03:26 467.674
CUBEBUG 2 24 Jan 08:00:05 08:03:46 26° 94° (E) 08:07:31 437.445
FUNcube-1 24 Jan 08:04:25 08:05:41 11° 86° (E) 08:06:57 145.935
CUTE-I 24 Jan 08:05:16 08:10:02 34° 297° (WNW) 08:14:48 437.470
COMPASS 1 24 Jan 08:09:41 08:13:29 32° 96° (E) 08:17:14 437.405
CANX-2 24 Jan 08:10:34 08:14:53 80° 101° (ESE) 08:19:11 2200.000
SEEDS 24 Jan 08:12:29 08:16:40 50° 99° (E) 08:20:47 437.485
DOVE 4 24 Jan 08:15:36 08:18:28 18° 299° (WNW) 08:21:19 437.250
AAUSAT CUBESAT 2 24 Jan 08:16:31 08:20:13 29° 95° (E) 08:23:51 437.432
HO-68 24 Jan 08:16:55 08:24:07 69° 104° (ESE) 08:31:14 435.675
UWE-3 24 Jan 08:19:17 08:23:01 26° 94° (E) 08:26:48 435.000/436.395/437.385
SO-50 24 Jan 08:26:31 08:31:07 54° 315° (NW) 08:35:41 436.795
ZACube-1 24 Jan 08:28:23 08:31:45 21° 92° (E) 08:35:08 437.345
JAS-2 24 Jan 08:30:34 08:33:39 15° 47° (NE) 08:36:54 435.910
PCSat 24 Jan 08:42:50 08:48:19 77° 55° (NE) 08:53:44 145.827
NOAA 15 24 Jan 08:44:03 08:47:35 18° 305° (NW) 08:51:05 137.62
PRISM 24 Jan 08:45:23 08:49:33 79° 75° (ENE) 08:53:44 437.425
Cubesat XI-IV 24 Jan 08:50:53 08:54:15 17° 306° (NW) 08:57:37 437.490
UNISAT 6 24 Jan 08:53:46 08:57:34 32° 66° (ENE) 09:01:24 437.425
Oscar 11 24 Jan 08:56:17 09:00:12 31° 95° (E) 09:04:05 145.826/435.025
DELFI C3 24 Jan 08:57:04 08:58:04 11° 87° (E) 08:59:02 145.870
TIGRISAT 24 Jan 09:05:32 09:09:28 38° 68° (ENE) 09:13:28 435.000
Cosmos 2499 24 Jan 09:09:38 09:11:25 11° 289° (WNW) 09:13:12 435.465 / 435.565
CINEMA 3 24 Jan 09:12:10 09:15:12 20° 297° (WNW) 09:18:18 145.822/145.860
CUTE 1.7 + AOD 2 24 Jan 09:16:36 09:20:17 28° 294° (WNW) 09:23:56 437.475
ANTELSAT 24 Jan 09:21:39 09:25:48 59° 72° (ENE) 09:30:03 437.575/2403.000
GONETS M04 24 Jan 09:22:16 09:27:20 17° 288° (WNW) 09:32:25
NOAA 18 24 Jan 09:30:50 09:34:00 16° 308° (NW) 09:37:10 137.9125
POLYITAN 1 24 Jan 09:35:29 09:36:45 11° 56° (NE) 09:38:02 437.675
QB50P2 24 Jan 09:36:25 09:38:07 12° 57° (ENE) 09:39:49 145.880/145.840
CUBEBUG 2 24 Jan 09:36:27 09:40:30 39° 291° (WNW) 09:44:39 437.445
HUMSAT D 24 Jan 09:36:31 09:39:29 18° 90° (E) 09:42:25 437.325/437.525
FUNcube-1 24 Jan 09:38:07 09:42:33 88° 106° (ESE) 09:47:03 145.935
RS-15 24 Jan 09:45:04 09:55:49 38° 254° (WSW) 10:06:15 29.354- 29.394
COMPASS 1 24 Jan 09:45:19 09:48:58 29° 294° (WNW) 09:52:36 437.405
CANX-2 24 Jan 09:47:52 09:50:09 14° 302° (WNW) 09:52:26 2200.000
SEEDS 24 Jan 09:48:53 09:52:02 20° 298° (WNW) 09:55:09 437.485
AAUSAT CUBESAT 2 24 Jan 09:51:58 09:55:40 31° 293° (WNW) 09:59:21 437.432
UWE-3 24 Jan 09:55:30 09:59:34 38° 292° (WNW) 10:03:43 435.000/436.395/437.385
POPSAT HIP 1 24 Jan 09:55:39 09:58:18 17° 60° (ENE) 10:00:59 437.405
DUCHIFAT 1 24 Jan 10:00:50 10:03:27 16° 60° (ENE) 10:06:04 145.980
ZACube-1 24 Jan 10:04:01 10:08:16 49° 289° (WNW) 10:12:36 437.345
HO-68 24 Jan 10:05:15 10:11:22 31° 305° (NW) 10:17:27 435.675
NANOSAT C BR1 24 Jan 10:08:12 10:11:17 20° 62° (ENE) 10:14:24 145.865
SO-50 24 Jan 10:09:29 10:12:35 17° 337° (NNW) 10:15:37 436.795
JAS-2 24 Jan 10:11:56 10:17:25 66° 70° (ENE) 10:23:39 435.910
PRISM 24 Jan 10:23:51 10:25:24 12° 272° (W) 10:26:58 437.425
PCSat 24 Jan 10:27:15 10:31:07 20° 253° (WSW) 10:34:58 145.827
DELFI C3 24 Jan 10:29:25 10:33:26 80° 285° (WNW) 10:37:24 145.870
UNISAT 6 24 Jan 10:30:35 10:34:18 29° 265° (W) 10:38:03 437.425
Oscar 11 24 Jan 10:32:26 10:36:18 31° 294° (WNW) 10:40:10 145.826/435.025
TIGRISAT 24 Jan 10:42:51 10:46:18 24° 267° (W) 10:49:48 435.000
ANTELSAT 24 Jan 11:00:17 11:02:56 16° 270° (W) 11:05:37 437.575/2403.000
QB50P1 24 Jan 11:02:02 11:06:12 71° 74° (ENE) 11:10:23 145.935-145.965
POLYITAN 1 24 Jan 11:07:39 11:11:50 81° 75° (ENE) 11:16:03 437.675
QB50P2 24 Jan 11:09:03 11:13:15 89° 84° (E) 11:17:30 145.880/145.840
HUMSAT D 24 Jan 11:11:12 11:15:25 54° 288° (WNW) 11:19:37 437.325/437.525
FUNcube-1 24 Jan 11:15:59 11:18:11 14° 302° (WNW) 11:20:22 145.935
CUSAT 1 24 Jan 11:29:01 11:33:36 16° 47° (NE) 11:38:03 437.405
POPSAT HIP 1 24 Jan 11:29:30 11:33:39 62° 259° (WSW) 11:37:50 437.405
SPROUT 24 Jan 11:30:06 11:30:33 10° 86° (E) 11:31:00 437.525
VELOX 1 24 Jan 11:33:18 11:35:53 15° 89° (E) 11:38:26 145.980
DUCHIFAT 1 24 Jan 11:34:34 11:38:41 63° 258° (WSW) 11:42:51 145.980
Cosmos 2491 24 Jan 11:39:13 11:46:56 32° 62° (ENE) 11:54:36 435.465 / 435.565
ESTCUBE 1 24 Jan 11:40:22 11:44:44 45° 99° (E) 11:49:04 437.505/2401.250
BY70-1 24 Jan 11:42:32 11:45:47 84° 285° (WNW) 11:48:47 436.1900
NANOSAT C BR1 24 Jan 11:42:41 11:46:43 48° 261° (W) 11:50:47 145.865
BUGSAT 1 24 Jan 11:50:43 11:54:45 74° 74° (ENE) 11:58:46 437.445
DX 1 24 Jan 11:51:35 11:52:46 11° 87° (E) 11:53:57 434.975-435.025
SO-50 24 Jan 11:53:16 11:54:53 12° 2° (N) 11:56:30 436.795
YUBILEINY 24 Jan 11:55:48 11:58:28 12° 67° (ENE) 12:01:09 435.215
Oscar 19 24 Jan 11:55:49 12:00:20 31° 63° (ENE) 12:04:52 437.125/150
JAS-2 24 Jan 11:58:59 12:03:14 22° 273° (W) 12:07:52 435.910
CUBEBUG 1 24 Jan 12:06:51 12:11:04 49° 99° (E) 12:15:16 437.445
DELFI C3 24 Jan 12:07:03 12:07:31 10° 304° (WNW) 12:07:59 145.870
AO-85 24 Jan 12:30:42 12:34:05 20° 115° (ESE) 12:37:19 145.980
50 SAT 24 Jan 12:31:24 12:34:47 40° 99° (E) 12:38:08 437.505
AISAT 24 Jan 12:35:16 12:39:39 62° 102° (ESE) 12:43:58 437.250
QB50P1 24 Jan 12:40:27 12:42:28 13° 272° (W) 12:44:30 145.935-145.965
Gurwin Techsat 1B 24 Jan 12:45:40 12:50:42 45° 67° (ENE) 12:55:45 435.225
POLYITAN 1 24 Jan 12:46:48 12:48:13 11° 273° (W) 12:49:38 437.675
QB50P2 24 Jan 12:48:57 12:49:42 10° 274° (W) 12:50:27 145.880/145.840
AO-7 24 Jan 12:50:38 12:57:01 25° 45° (NE) 13:03:25 29.400- 29.500
ITAMSAT 1 24 Jan 12:51:05 12:53:39 14° 52° (NE) 12:56:13 435.822/435.867
DANDE 24 Jan 13:02:34 13:08:53 26° 59° (ENE) 13:15:32 436.750
SPROUT 24 Jan 13:02:50 13:07:08 88° 108° (ESE) 13:11:24 437.525
VELOX 1 24 Jan 13:08:25 13:12:48 67° 288° (WNW) 13:17:09 145.980
CUSAT 1 24 Jan 13:09:38 13:17:30 54° 70° (ENE) 13:24:41 437.405
UKube-1 24 Jan 13:15:09 13:19:24 54° 101° (E) 13:23:38 .
ESTCUBE 1 24 Jan 13:17:38 13:21:19 25° 297° (WNW) 13:24:58 437.505/2401.250
AIST 1 24 Jan 13:25:01 13:29:07 42° 93° (E) 13:33:14
DX 1 24 Jan 13:25:14 13:29:37 89° 268° (W) 13:33:56 434.975-435.025
BUGSAT 1 24 Jan 13:29:08 13:30:38 12° 272° (W) 13:32:08 437.445
SO-50 24 Jan 13:33:45 13:37:07 20° 27° (NNE) 13:40:26 436.795
Oscar 19 24 Jan 13:34:33 13:39:30 44° 262° (W) 13:44:30 437.125/150
Cosmos 2491 24 Jan 13:35:50 13:44:34 71° 266° (W) 13:53:19 435.465 / 435.565
CUBEBUG 1 24 Jan 13:43:48 13:47:04 21° 298° (WNW) 13:50:18 437.445
YUBILEINY 24 Jan 13:44:37 13:53:06 55° 90° (E) 14:01:38 435.215
BEESAT 24 Jan 13:55:35 13:57:32 12° 87° (E) 13:59:29 436.000
SWISSCUBE 24 Jan 13:57:11 13:59:47 14° 88° (E) 14:02:23 437.505
Cosmos 2504 24 Jan 14:01:36 14:09:16 40° 87° (E) 14:16:30 435.465 / 435.565
50 SAT 24 Jan 14:05:17 14:07:43 18° 297° (WNW) 14:10:09 437.505
AO-85 24 Jan 14:09:38 14:14:10 64° 312° (NW) 14:18:24 145.980
O/OREOS (USA 219) 24 Jan 14:12:36 14:16:24 26° 50° (NE) 14:20:11 437.305
AISAT 24 Jan 14:12:42 14:15:40 18° 300° (WNW) 14:18:38 437.250
TISAT 1 24 Jan 14:14:25 14:18:37 77° 104° (ESE) 14:22:48 437.305
Gurwin Techsat 1B 24 Jan 14:26:10 14:30:48 30° 266° (W) 14:35:29 435.225
ITAMSAT 1 24 Jan 14:27:07 14:32:16 74° 72° (ENE) 14:37:27 435.822/435.867
BRITE-PL 24 Jan 14:37:55 14:40:40 14° 54° (NE) 14:43:23 437.365/2234.400
AO-7 24 Jan 14:40:18 14:48:40 80° 67° (ENE) 14:57:05 29.400- 29.500
SPROUT 24 Jan 14:40:29 14:42:26 13° 303° (WNW) 14:44:21 437.525
DANDE 24 Jan 14:44:37 14:52:36 86° 79° (ENE) 15:00:59 436.750
MOZHAYETS 4 24 Jan 14:47:04 14:49:15 13° 87° (E) 14:51:26
VELOX 1 24 Jan 14:47:56 14:48:25 10° 307° (NW) 14:48:54 145.980
CUSAT 1 24 Jan 14:51:57 14:59:15 41° 272° (W) 15:05:56 437.405
UKube-1 24 Jan 14:51:59 14:55:05 20° 299° (WNW) 14:58:10 .
ITUPSAT 1 24 Jan 14:59:48 15:04:27 45° 99° (E) 15:09:04 437.325
DX 1 24 Jan 15:03:09 15:05:08 13° 304° (NW) 15:07:06 434.975-435.025
AIST 1 24 Jan 15:03:30 15:06:55 22° 292° (WNW) 15:10:20
BEESAT 2 24 Jan 15:12:30 15:14:15 13° 110° (ESE) 15:16:00 435.950
SO-50 24 Jan 15:13:47 15:18:20 75° 49° (NE) 15:22:49 436.795
BEESAT 24 Jan 15:31:12 15:36:02 88° 105° (ESE) 15:40:50 436.000
SWISSCUBE 24 Jan 15:33:21 15:38:12 81° 286° (WNW) 15:43:00 437.505
Cosmos 2491 24 Jan 15:34:47 15:39:45 17° 288° (WNW) 15:44:44 435.465 / 435.565
YUBILEINY 24 Jan 15:41:59 15:50:13 42° 293° (WNW) 15:58:31 435.215
TISAT 1 24 Jan 15:51:29 15:53:42 14° 302° (WNW) 15:55:55 437.305
O/OREOS (USA 219) 24 Jan 15:51:42 15:56:02 47° 250° (WSW) 16:00:22 437.305
BEESAT 3 24 Jan 15:52:22 15:56:13 64° 125° (SE) 16:00:09 437.485
AO-85 24 Jan 15:52:32 15:55:20 16° 333° (NNW) 15:58:03 145.980
Cosmos 2504 24 Jan 15:54:14 16:02:29 54° 287° (WNW) 16:10:14 435.465 / 435.565
GOMX 1 24 Jan 15:54:17 15:58:18 23° 62° (ENE) 16:02:09 467.674
NOAA 18 24 Jan 16:04:02 16:04:48 10° 46° (NE) 16:05:35 137.9125
ITAMSAT 1 24 Jan 16:08:52 16:12:18 18° 271° (W) 16:15:45 435.822/435.867
DOVE 4 24 Jan 16:11:14 16:13:28 13° 58° (ENE) 16:15:41 437.250
BRITE-PL 24 Jan 16:12:38 16:18:15 68° 73° (ENE) 16:23:42 437.365/2234.400
CUTE-I 24 Jan 16:13:19 16:16:50 18° 55° (NE) 16:20:22 437.470
MOZHAYETS 4 24 Jan 16:22:21 16:27:03 84° 285° (WNW) 16:31:41
KKS-1 24 Jan 16:27:55 16:32:02 37° 97° (E) 16:36:09 437.445
DANDE 24 Jan 16:28:21 16:34:36 26° 277° (W) 16:41:05 436.750
LilacSat-2 24 Jan 16:33:01 16:35:31 17° 62° (ENE) 16:38:02 437.200
AO-7 24 Jan 16:35:29 16:42:18 27° 268° (W) 16:49:12 29.400- 29.500
ITUPSAT 1 24 Jan 16:38:03 16:42:04 27° 298° (WNW) 16:46:04 437.325
HORYU 2 24 Jan 16:38:57 16:43:16 56° 70° (ENE) 16:47:36 437.375
BEESAT 2 24 Jan 16:47:27 16:51:25 84° 309° (NW) 16:55:27 435.950
NOAA 15 24 Jan 16:48:22 16:53:05 34° 63° (ENE) 16:57:49 137.62
SO-50 24 Jan 16:55:20 16:58:16 17° 248° (WSW) 17:01:09 436.795
Cubesat XI-IV 24 Jan 16:56:24 17:01:13 37° 64° (ENE) 17:06:04 437.490
M-CUBED/EXP-1 PRIME 24 Jan 17:03:04 17:06:24 63° 107° (ESE) 17:09:37 437.505
HO-68 24 Jan 17:04:50 17:09:47 20° 48° (NE) 17:14:44 435.675
CINEMA 3 24 Jan 17:07:09 17:07:33 10° 56° (NE) 17:07:56 145.822/145.860
STARS 24 Jan 17:07:44 17:11:57 44° 99° (E) 17:16:07 437.465
BEESAT 24 Jan 17:10:23 17:13:09 15° 304° (NW) 17:15:55 436.000
SWISSCUBE 24 Jan 17:12:51 17:15:14 14° 306° (NW) 17:17:36 437.505
CUBESAT XI-V 24 Jan 17:20:50 17:25:32 66° 101° (ESE) 17:30:10 437.345
GOMX 1 24 Jan 17:30:50 17:36:03 60° 259° (W) 17:40:59 467.674
BEESAT 3 24 Jan 17:31:01 17:34:12 23° 326° (NW) 17:37:24 437.485
CANX-2 24 Jan 17:33:56 17:35:53 13° 57° (ENE) 17:37:50 2200.000
AUBIESAT-1 24 Jan 17:35:37 17:38:56 63° 293° (WNW) 17:42:11 437.475
NOAA 18 24 Jan 17:38:59 17:44:15 49° 66° (ENE) 17:49:31 137.9125
DOVE 4 24 Jan 17:45:45 17:50:35 86° 79° (E) 17:55:09 437.250
YUBILEINY 24 Jan 17:47:51 17:50:11 11° 321° (NW) 17:52:32 435.215
CUTE-I 24 Jan 17:50:56 17:56:15 85° 259° (WSW) 18:01:36 437.470
AIST 2 24 Jan 17:52:27 17:54:25 13° 110° (ESE) 17:56:26 435.215
BRITE-PL 24 Jan 17:52:51 17:57:08 22° 270° (W) 18:01:20 437.365/2234.400
Cosmos 2504 24 Jan 17:54:13 17:57:56 13° 311° (NW) 18:01:35 435.465 / 435.565
MOZHAYETS 4 24 Jan 18:01:15 18:03:29 13° 304° (NW) 18:05:43
Cosmos 2499 24 Jan 18:03:10 18:08:54 22° 79° (E) 18:14:21 435.465 / 435.565
KKS-1 24 Jan 18:04:43 18:08:30 28° 296° (WNW) 18:12:15 437.445
LilacSat-2 24 Jan 18:05:48 18:09:28 49° 261° (W) 18:13:12 437.200
HORYU 2 24 Jan 18:17:07 18:20:10 18° 269° (W) 18:23:14 437.375
BEESAT 2 24 Jan 18:27:00 18:29:49 18° 330° (NNW) 18:32:39 435.950
NOAA 15 24 Jan 18:27:46 18:32:46 42° 262° (W) 18:37:49 137.62
GONETS M04 24 Jan 18:34:22 18:41:31 30° 80° (E) 18:48:44
Cubesat XI-IV 24 Jan 18:36:22 18:41:17 38° 263° (W) 18:46:14 437.490
CUTE 1.7 + AOD 2 24 Jan 18:36:50 18:40:50 41° 69° (ENE) 18:44:52 437.475
M-CUBED/EXP-1 PRIME 24 Jan 18:39:09 18:40:26 12° 307° (NW) 18:41:43 437.505
CINEMA 3 24 Jan 18:39:41 18:43:59 75° 73° (ENE) 18:48:10 145.822/145.860
STARS 24 Jan 18:44:34 18:48:04 24° 298° (WNW) 18:51:33 437.465
HO-68 24 Jan 18:49:15 18:56:26 75° 69° (ENE) 19:03:38 435.675
CUBESAT XI-V 24 Jan 18:59:11 19:02:26 19° 301° (WNW) 19:05:41 437.345
CUBEBUG 2 24 Jan 19:02:13 19:05:55 32° 67° (ENE) 19:09:39 437.445
FUNcube-1 24 Jan 19:03:37 19:05:53 14° 58° (ENE) 19:08:09 145.935
COMPASS 1 24 Jan 19:03:57 19:07:48 36° 68° (ENE) 19:11:41 437.405
CANX-2 24 Jan 19:06:48 19:11:05 88° 256° (WSW) 19:15:25 2200.000
SEEDS 24 Jan 19:07:39 19:11:48 57° 72° (ENE) 19:16:00 437.485
AAUSAT CUBESAT 2 24 Jan 19:10:17 19:14:03 33° 67° (ENE) 19:17:50 437.432
AO-85 24 Jan 19:17:31 19:19:43 14° 23° (NNE) 19:21:51 145.980
